Regional Weather Roundup
Issued by NWS

Home | Current Version | Previous Version | Text Only | Print | Product List | Glossary On
Versions: 1 2 3 4 5 6 7 8 9 10 11 12 13 14 15 16 17 18 19 20 21 22 23 24 25 26 27 28 29 30 31 32 33 34 35 36 37 38 39 40 41 42 43 44 45 46 47 48 49 50
000
ASUS43 KMKX 301000
RWRWI

WISCONSIN REGIONAL WEATHER ROUNDUP
NATIONAL WEATHER SERVICE MILWAUKEE/SULLIVAN WI
500 AM CDT WED JUL 30 2014

NOTE: "FAIR" INDICATES FEW OR NO CLOUDS BELOW 12,000 FEET WITH NO
SIGNIFICANT WEATHER AND/OR OBSTRUCTIONS TO VISIBILITY.

WIZ001-002-006>008-014>016-023>028-301100-
NORTHWEST WISCONSIN

CITY           SKY/WX    TMP DP  RH WIND       PRES   REMARKS
SUPERIOR ARPT  FOG       46  46 100 CALM      30.07R VSB 1/4
ASHLAND        FOG       48  48 100 SW5       30.07S VSB 1/2
HAYWARD        FOG       49  49 100 CALM      30.08R VSB 1/4
SIREN          FOG       52  51  98 CALM      30.08R VSB 1/4
RICE LAKE      FOG       51  50  97 CALM      30.09R VSB<1/4
LADYSMITH      CLOUDY    55  54  96 CALM      30.09R FOG
EAU CLAIRE     CLEAR     54  54 100 N3        30.05S
MENOMONIE      SUNNY     56  55  96 CALM      30.07R
NEW RICHMOND   CLEAR     53  53  98 CALM      30.07R
OSCEOLA        FOG       54  54 100 CALM      30.09S VSB 1/2
$$

WIZ003>005-009-010-017-018-301100-
NORTH CENTRAL WISCONSIN

CITY           SKY/WX    TMP DP  RH WIND       PRES   REMARKS
WOODRUFF       PTCLDY    47  45  92 CALM      30.06R
RHINELANDER    FOG       50  50 100 N3        30.06R VSB 1/4
EAGLE RIVER    FOG       50  50 100 CALM      30.05S VSB 1/2
LAND O LAKES   FOG       51  51 100 CALM      30.06S VSB 1/4
PHILLIPS       CLOUDY    54  53  97 CALM      30.06S
TOMAHAWK       FOG       45  44  97 CALM      30.07R VSB<1/4
MEDFORD        FOG       52  51  99 CALM      30.06R VSB 1/4
MERRILL        FOG       50  50 100 CALM      30.06R VSB 1/4
$$

WIZ029-030-035-036-043>047-301100-
CENTRAL WISCONSIN

CITY           SKY/WX    TMP DP  RH WIND       PRES   REMARKS
WAUSAU         CLEAR     53  52  96 CALM      30.04R
MOSINEE        CLEAR     52  52 100 NW6       30.06R
MARSHFIELD     CLEAR     53  51  93 NW6       30.05R FOG
STEVENS POINT  CLEAR     49  49  97 CALM      30.05R FOG
WAUPACA        CLOUDY    58  56  92 NW3       30.03S
WAUTOMA        NOT AVBL
WISC RAPIDS    CLEAR     55  54  96 N3        30.05R
CAMP DOUGLAS   FOG       54  54 100 W5        30.05R VSB 3/4
$$

WIZ011>013-019>022-031-037>040-048>050-301100-
NORTHEAST WISCONSIN

CITY           SKY/WX    TMP DP  RH WIND       PRES   REMARKS
ANTIGO         CLEAR     47  47  99 CALM      30.05R FOG
STURGEON BAY   CLEAR     55  52  88 CALM      30.00S VSB 1
GREEN BAY      CLOUDY    59  58  96 N3        30.02R
MANITOWOC      NOT AVBL
APPLETON       CLOUDY    57  55  94 N3        30.02R FOG
CLINTONVILLE   MOCLDY    55  54  94 N3        30.03R
OSHKOSH        CLOUDY    59  58  96 NW3       30.01S
$$

WIZ032>034-041-042-053>061-301100-
SOUTHWEST WISCONSIN

CITY           SKY/WX    TMP DP  RH WIND       PRES   REMARKS
LA CROSSE      CLEAR     59  57  93 NE3       30.05R
SPARTA         FOG       55  55  98 CALM      30.06R VSB 1/4
VIROQUA        FAIR      56  56 100 W3        30.05S
BOSCOBEL       FOG       57  56  96 CALM      30.05R VSB 1/4
PRAIRIE DU CHI CLEAR     59  55  87 CALM      30.04S
PLATTEVILLE    FAIR      57  56  95 CALM      30.05S
$$

WIZ056-057-062-063-064-067-068-301100-
SOUTH CENTRAL WISCONSIN

CITY           SKY/WX    TMP DP  RH WIND       PRES   REMARKS
BARABOO/DELLS  CLEAR     55  54  94 CALM      30.04R
LONE ROCK      NOT AVBL
WATERTOWN      MOCLDY    57  56  97 CALM      30.01S
MADISON        PTCLDY    58  55  90 CALM      30.02S
MIDDLETON      FAIR      58  57  94 NW3       30.03S
MONROE         CLEAR     59  55  88 W7        30.03S
JANESVILLE     PTCLDY    57  54  88 W3        30.01S
$$

WIZ051-052-058>065-066-070>072-301100-
SOUTHEAST WISCONSIN

CITY           SKY/WX    TMP DP  RH WIND       PRES   REMARKS
MILWAUKEE      MOCLDY    60  56  86 NW5       30.00S
WAUKESHA       MOCLDY    55  55 100 W8        30.01S
MILWAUKEE/TIMM MOCLDY    57  54  88 NW3       30.01S
RACINE         CLOUDY    59  56  89 W5        30.02R
BURLINGTON     MOCLDY    56  55  98 CALM      30.00S
KENOSHA        MOCLDY    58  56  93 NW3       30.01R
FOND DU LAC    PTCLDY    56  54  93 NW8       30.01S
SHEBOYGAN      CLOUDY    58  56  93 N5        30.00R
WEST BEND      CLEAR     55  52  88 NW5       30.01R
JUNEAU         FOG       54  53  97 CALM      30.03R VSB 1/2
$$

LSZ147-162-301100-
LAKE SUPERIOR

STATION/POSITION TIME  TEMP    WIND        PRES    WAVE
                       AIR SEA DIR/SP/G            HT/PER
                 (UTC) (F)     (DEG/KT/KT) (MB)    (FT/S)
W MID LAKE BUOY  0850   47 43  240/  4/  4 1017.5R   0
PORT WING        0900   55     180/  4/  4 1017.9S
SAXON HARBOR     0900          190/  2/  3 1017.9R
$$

LMZ867-665-643>646-301100-
LAKE MICHIGAN

STATION/POSITION TIME  TEMP    WIND        PRES    WAVE
                       AIR SEA DIR/SP/G            HT/PER
                 (UTC) (F)     (DEG/KT/KT) (MB)    (FT/S)
N MID LAKE BUOY  0850   56 55  300/  4/  4 1014.8R   0
NORTHPORT PIER   0900   57     290/  3/  5 1015.6S
ALGOMA LAKESHORE 0921             CALM       N/A
KEWAUNEE LAKESHO 0900   58      10/  4/  5 1016.2R
SHEBOYGAN LAKESH 0900   61     300/  8/  9 1015.4R
PORT WASHINGTON  0900   60     290/  7/ 10 1015.9S
ATWATER BUOY     0900   61     270/ 10     1016.4R
MILWAUKEE LAKESH 0900   61     300/  6/  9   N/A
S MID LAKE BUOY  0850   61 61  240/  6/ 10 1015.5F   1/ 3
KENOSHA   LAKESH 0900   60     270/ 10/ 14 1015.2F
$$

TC  - TEMPERATURE IN CELSIUS
VSB - VISIBILITY IN STATUTE MILES
WCI - WIND CHILL INDEX
HX  - HEAT INDEX



USA.gov is the U.S. government's official web portal to all federal, state and local government web resources and services.